[[{"header":{"parameterUnit":"m.s-1","parameterCategory":1,"la1":30.2991,"la2":30.254,"lo1":-89.0895,"lo2":-89.0444,"dy":0.0017,"dx":0.0017,"nx":28,"ny":28,"refTime":"2024-07-15T21:00:00:Z","depth":0,"parameterNumber":2,"parameterNumberName":"U-component_of_WINDS"},"data":[0,0,0,0,0,0,0,0,0,0,0,0,0,0,0,0,0,0,0,0,0,0,0,0,0,0,0,0,0,0,0,0,0,0,0,0,0,0,0,0,0,0,0,0,0,0,0,0,0,0,0,0,0,0,0,0,0,0,1.5298,1.5299,0,1.5373,1.5374,1.5375,1.5369,1.5368,1.5366,1.5365,1.5443,1.5446,1.5449,0,0,0,0,0,0,0,0,0,0,0,0,0,1.5147,1.515,1.5298,1.5299,1.53,1.5373,1.5374,1.5375,1.5369,1.5368,1.5366,1.5365,1.5442,1.5445,1.5449,0,0,0,0,0,0,0,0,0,0,0,0,0,1.5216,1.5151,1.5298,1.5305,1.5307,1.5373,1.5374,1.5376,1.5369,1.5367,1.5366,1.5364,1.5441,1.5445,1.545,1.5513,0,0,1.5464,1.5466,0,0,0,0,0,0,0,0,1.5212,1.5222,1.5303,1.5305,1.5307,1.536,1.5349,1.5422,1.537,1.5346,1.5365,1.5363,1.5417,1.5423,1.5441,1.5517,1.552,1.5464,1.5467,1.5469,1.5471,0,0,0,0,0,0,0,1.5208,1.5219,1.5328,1.5304,1.5307,1.5305,1.5313,1.5363,1.539,1.5347,1.5347,1.5356,1.5417,1.5437,1.5443,1.5521,1.5464,1.5469,1.5471,1.5473,1.5651,1.5652,0,0,0,0,0,0,1.5201,1.5215,1.5325,1.533,1.5254,1.5309,1.5318,1.5345,1.5389,1.5394,1.5358,1.5356,1.5429,1.5437,1.5446,1.5521,1.5469,1.5474,1.5476,1.5649,1.5651,1.5653,0,0,0,0,0,0,1.5198,1.5211,1.5322,1.5272,1.5286,1.5313,1.5343,1.5347,1.5366,1.5397,1.5402,1.5373,1.5428,1.5439,1.5496,1.5524,1.5476,1.548,1.5646,1.5649,1.5652,1.5674,0,0,0,0,0,0,1.5194,1.521,1.5235,1.5273,1.5289,1.5372,1.5345,1.535,1.5374,1.5373,1.5412,1.5417,1.5428,1.5489,1.5501,1.5529,1.5484,1.5644,1.5648,1.5651,1.5671,1.5677,1.5682,0,0,0,0,0,1.5188,1.5238,1.5236,1.5249,1.5321,1.5373,1.5383,1.5394,1.5377,1.5401,1.5421,1.5416,1.5519,1.5495,1.5508,1.5539,1.5642,1.5647,1.5651,1.5668,1.5676,1.5682,0,0,0,0,0,0,1.5203,1.5243,1.5241,1.5305,1.5336,1.5372,1.5404,1.5402,1.5438,1.5435,1.5447,1.5456,1.5513,1.5532,1.5504,1.5601,1.5578,1.5585,1.5587,1.5595,1.56,1.5594,1.5488,0,0,0,0,0,1.5214,1.5254,1.5287,1.534,1.5355,1.5377,1.54,1.5406,1.5438,1.5451,1.5475,1.5506,1.5546,1.5571,1.5609,1.5674,1.5681,1.5701,1.5707,1.5711,1.5717,1.5751,1.5759,1.5667,1.5667,1.5667,0,0,1.5236,1.5263,1.5288,1.5343,1.5368,1.5408,1.5388,1.5432,1.5461,1.5458,1.5513,1.5531,1.5567,1.5627,1.5655,1.5644,1.5744,1.5717,1.572,1.5724,1.5756,1.5764,1.5772,1.567,1.5669,1.5669,0,0,1.5297,1.5323,1.5369,1.5393,1.543,1.5444,1.5455,1.5491,1.5503,1.5558,1.5556,1.5592,1.566,1.5684,1.5706,1.5775,1.5771,1.5787,1.5818,1.585,1.5857,1.5864,1.5887,1.5895,1.5793,1.5793,1.5793,0,1.5321,1.5381,1.5393,1.5436,1.546,1.5459,1.5505,1.5528,1.5576,1.5592,1.558,1.5663,1.5688,1.5753,1.5769,1.5788,1.5799,1.5782,1.5855,1.5862,1.5868,1.589,1.5899,1.5795,1.5794,1.5794,1.5794,0,1.5407,1.5449,1.5482,1.5527,1.5555,1.56,1.5617,1.5644,1.5647,1.5662,1.5717,1.5746,1.5789,1.5805,1.5809,1.587,1.5862,1.5853,1.583,1.5878,1.5899,1.5908,1.5797,1.5796,1.5796,1.5795,0,0,1.548,1.553,1.5542,1.5561,1.5601,1.5634,1.5678,1.5719,1.5741,1.5774,1.581,1.5867,1.5858,1.5882,1.5889,1.5918,1.5968,1.5904,1.5905,1.5914,1.6036,1.6042,1.6051,1.5967,1.5968,1.597,1.6032,0,1.5544,1.5622,1.5633,1.5701,1.5739,1.5738,1.5776,1.5805,1.5819,1.5854,1.587,1.5909,1.5895,1.5909,1.5938,1.5956,1.5993,1.5952,1.6,1.6001,1.5989,1.6063,1.607,1.6127,1.6041,1.6042,1.6043,0,1.5629,1.5663,1.5735,1.5768,1.5785,1.5819,1.5857,1.589,1.5922,1.593,1.5957,1.596,1.6005,1.598,1.6042,1.6014,1.6034,1.6046,1.6048,1.6052,1.6024,1.6067,1.6146,1.6154,1.6056,1.6055,1.6054,0,1.5673,1.5737,1.5788,1.5805,1.5845,1.5869,1.5887,1.5917,1.5941,1.5974,1.5989,1.6028,1.6048,1.6078,1.609,1.6072,1.615,1.6127,1.6158,1.6157,1.6173,1.6172,1.6255,1.6189,1.6189,1.6188,1.6188,0,1.5742,1.5786,1.5807,1.5839,1.5887,1.5899,1.5947,1.5964,1.599,1.6024,1.6026,1.6058,1.6073,1.6107,1.6118,1.6166,1.6176,1.6183,1.6185,1.6182,1.6181,1.6195,1.619,1.6191,1.619,1.619,1.6189,0,1.5799,1.5815,1.587,1.5904,1.5913,1.5947,1.5976,1.6005,1.602,1.6063,1.6073,1.6096,1.6136,1.6151,1.6201,1.6208,1.6262,1.6262,1.6251,1.6252,1.628,1.6277,1.6374,1.6387,1.6313,1.6314,1.6315,0,1.5841,1.5875,1.5911,1.5934,1.5952,1.5989,1.6013,1.6026,1.605,1.6088,1.6113,1.6153,1.6185,1.6249,1.6269,1.6307,1.6306,1.6338,1.6312,1.6307,1.6305,1.6302,1.6305,1.6342,1.6343,1.6343,1.6344,0,1.5914,1.592,1.5955,1.5992,1.602,1.605,1.6079,1.6097,1.6114,1.6141,1.6182,1.6207,1.6256,1.6295,1.6333,1.6351,1.635,1.6352,1.6361,1.6357,1.6349,1.6352,1.6263,1.635,1.6349,1.6349,1.6348,1.6348,1.5964,1.5993,1.6023,1.6061,1.6083,1.611,1.6139,1.6157,1.6191,1.6232,1.6237,1.628,1.6309,1.636,1.638,1.6413,1.6405,1.6418,1.6421,1.6424,1.6425,1.6345,1.6421,1.642,1.642,1.642,1.642,0,1.6036,1.6055,1.6089,1.6129,1.6158,1.6155,1.6186,1.6211,1.6248,1.6276,1.6307,1.6353,1.6391,1.6414,1.6451,1.6473,1.6474,1.6483,1.648,1.6484,1.6431,1.6419,1.6482,1.6482,1.6482,1.6482,1.6482,1.6482,1.6077,1.6125,1.6134,1.6193,1.6212,1.6254,1.6271,1.6296,1.6317,1.6368,1.6399,1.6414,1.6439,1.6478,1.6512,1.6518,1.6531,1.6541,1.6545,1.6495,1.6488,1.6482,1.6471,1.6544,1.6544,1.6596,1.6596,1.6597]},{"header":{"parameterUnit":"m.s-1","parameterCategory":1,"la1":30.2991,"la2":30.254,"lo1":-89.0895,"lo2":-89.0444,"dy":0.0017,"dx":0.0017,"nx":28,"ny":28,"refTime":"2024-07-15T21:00:00:Z","depth":0,"parameterNumber":3,"parameterNumberName":"V-component_of_WINDS"},"data":[0,0,0,0,0,0,0,0,0,0,0,0,0,0,0,0,0,0,0,0,0,0,0,0,0,0,0,0,0,0,0,0,0,0,0,0,0,0,0,0,0,0,0,0,0,0,0,0,0,0,0,0,0,0,0,0,0,0,3.951,3.9511,0,3.9567,3.9567,3.9568,3.9523,3.9522,3.952,3.9518,3.957,3.9574,3.9577,0,0,0,0,0,0,0,0,0,0,0,0,0,3.9357,3.936,3.951,3.9511,3.9511,3.9567,3.9567,3.9568,3.9524,3.9522,3.9519,3.9517,3.9569,3.9573,3.9577,0,0,0,0,0,0,0,0,0,0,0,0,0,3.9419,3.9361,3.951,3.9496,3.9495,3.9566,3.9567,3.9568,3.9524,3.9521,3.9519,3.9516,3.9568,3.9573,3.9577,3.9663,0,0,3.9592,3.9594,0,0,0,0,0,0,0,0,3.9416,3.9425,3.9497,3.9497,3.9497,3.9535,3.9532,3.96,3.9525,3.9513,3.9518,3.9515,3.9561,3.9566,3.9582,3.9666,3.9668,3.9592,3.9595,3.9597,3.9599,0,0,0,0,0,0,0,3.9411,3.9422,3.9532,3.9498,3.9498,3.9485,3.9491,3.9545,3.9552,3.9514,3.9511,3.9519,3.956,3.9578,3.9583,3.9669,3.9592,3.9596,3.9599,3.9601,3.9823,3.9825,0,0,0,0,0,0,3.9409,3.9419,3.953,3.9534,3.9449,3.949,3.9496,3.9526,3.9551,3.9553,3.9521,3.9516,3.9571,3.9578,3.9585,3.9686,3.9597,3.9602,3.9604,3.982,3.9823,3.9827,0,0,0,0,0,0,3.9406,3.942,3.9528,3.9476,3.9488,3.9496,3.9529,3.9528,3.9546,3.9557,3.9557,3.9539,3.9569,3.9578,3.9644,3.9687,3.9604,3.9608,3.9816,3.9821,3.9825,3.9889,0,0,0,0,0,0,3.9402,3.9419,3.9453,3.9477,3.9491,3.9588,3.9531,3.9531,3.9555,3.955,3.9573,3.9574,3.9568,3.9637,3.9649,3.9692,3.9612,3.9812,3.9818,3.9823,3.9883,3.9895,3.9905,0,0,0,0,0,3.9397,3.9468,3.9455,3.9469,3.9535,3.9591,3.9599,3.9592,3.9559,3.9592,3.9598,3.9574,3.9681,3.9644,3.9657,3.9702,3.9809,3.9816,3.9823,3.9878,3.9893,3.9905,0,0,0,0,0,0,3.9448,3.9471,3.9457,3.9539,3.9564,3.9583,3.9625,3.9608,3.9641,3.9634,3.9622,3.9627,3.9696,3.9706,3.9665,3.9785,3.9739,3.9749,3.9777,3.9791,3.9802,3.9798,3.9616,0,0,0,0,0,3.9469,3.9515,3.9532,3.9602,3.9615,3.9618,3.9642,3.9635,3.9659,3.9669,3.968,3.9702,3.9741,3.9766,3.9803,3.9884,3.9887,3.9921,3.9933,3.9942,3.995,3.9992,4.0007,3.9849,3.9849,3.9849,0,0,3.9513,3.9531,3.956,3.9613,3.9631,3.9676,3.9627,3.9678,3.971,3.9675,3.9738,3.9747,3.9771,3.9845,3.9878,3.9855,3.9994,3.995,3.9958,3.9961,4.0,4.0015,4.0028,3.9854,3.9853,3.9852,0,0,3.9615,3.9635,3.9694,3.9714,3.9742,3.9744,3.9758,3.9781,3.9786,3.9849,3.9823,3.9861,3.9928,3.9946,3.9964,4.0072,4.0049,4.0084,4.0142,4.0183,4.0195,4.0206,4.0243,4.0257,4.0092,4.0092,4.0092,0,3.9665,3.9735,3.9727,3.9779,3.9802,3.9774,3.9833,3.9851,3.989,3.9905,3.9879,3.9962,3.9977,4.0053,4.0079,4.0095,4.011,4.0081,4.0195,4.0205,4.0215,4.025,4.0265,4.0096,4.0095,4.0095,4.0095,0,3.9793,3.9842,3.9886,3.9926,3.9953,4.0009,4.0007,4.0036,4.0025,4.0029,4.0092,4.0108,4.0147,4.0164,4.0154,4.0239,4.0224,4.0197,4.015,4.0235,4.0267,4.0281,4.0101,4.01,4.0099,4.0098,0,0,3.993,3.9964,3.9981,3.9997,4.0026,4.0062,4.0115,4.0154,4.0178,4.0205,4.0247,4.0304,4.0279,4.0299,4.0291,4.0327,4.0409,4.0295,4.0295,4.0314,4.0502,4.0521,4.0537,4.0395,4.0397,4.0399,4.0499,0,4.0033,4.0127,4.0121,4.0209,4.0252,4.0226,4.0271,4.0293,4.0297,4.0332,4.0336,4.0376,4.0341,4.0352,4.0387,4.0392,4.0446,4.0385,4.0432,4.0434,4.0426,4.0554,4.0575,4.0669,4.0512,4.0514,4.0516,0,4.0166,4.0198,4.0291,4.0312,4.033,4.0372,4.0406,4.0441,4.0463,4.0463,4.0486,4.0471,4.0522,4.0475,4.0543,4.0502,4.052,4.0525,4.0529,4.0532,4.0479,4.056,4.0699,4.0712,4.0536,4.0534,4.0533,0,4.0254,4.0321,4.0385,4.04,4.0427,4.0456,4.0468,4.0488,4.0512,4.0541,4.0555,4.059,4.0608,4.0634,4.0627,4.0594,4.0697,4.065,4.0697,4.0697,4.0719,4.0718,4.0862,4.0733,4.0733,4.0733,4.0733,0,4.0369,4.0426,4.0425,4.0464,4.0527,4.0518,4.0579,4.0588,4.0606,4.0644,4.0622,4.0658,4.0648,4.0683,4.0678,4.0735,4.0744,4.0744,4.0742,4.0745,4.0745,4.0757,4.075,4.0737,4.0736,4.0735,4.0734,0,4.0478,4.048,4.0548,4.0567,4.0573,4.0619,4.0634,4.067,4.0672,4.0721,4.0732,4.0734,4.0774,4.0771,4.0815,4.0812,4.0882,4.0872,4.0875,4.0872,4.0919,4.0914,4.1075,4.1095,4.0955,4.0956,4.0957,0,4.0551,4.0595,4.0619,4.0644,4.0659,4.0699,4.0723,4.0716,4.0741,4.0769,4.0801,4.0839,4.0869,4.0934,4.0939,4.0972,4.0963,4.1017,4.0967,4.0969,4.0962,4.0959,4.0962,4.1026,4.1028,4.1029,4.103,0,4.068,4.0678,4.0714,4.0751,4.078,4.0808,4.0833,4.0854,4.0848,4.0878,4.0919,4.0943,4.0988,4.1026,4.1057,4.1067,4.1047,4.1046,4.1058,4.1062,4.1061,4.1061,4.09,4.1042,4.1041,4.104,4.1039,4.1039,4.0772,4.0809,4.0832,4.0872,4.089,4.0914,4.0949,4.0955,4.099,4.1028,4.1021,4.1067,4.1086,4.1127,4.114,4.1174,4.1154,4.1173,4.1177,4.1182,4.1187,4.1056,4.118,4.118,4.1179,4.1179,4.1179,0,4.0898,4.0911,4.0949,4.0985,4.1016,4.0997,4.1023,4.105,4.1091,4.1112,4.1142,4.1189,4.1225,4.1232,4.1266,4.1292,4.1284,4.1301,4.1299,4.1301,4.1203,4.1188,4.1307,4.1307,4.1307,4.1307,4.1307,4.1307,4.0967,4.1028,4.1029,4.1098,4.111,4.1157,4.1173,4.1194,4.121,4.1264,4.1294,4.13,4.1314,4.1349,4.138,4.1381,4.1394,4.1415,4.1413,4.1321,4.1308,4.1296,4.1282,4.1418,4.1419,4.1507,4.1508,4.1509]}]]